Location: Gniazdowice
(50.2124°N, 20.2673°E)
Time: 15:27:46
(UTC+00:00)

CZ-2C R/B - Pass Details

Date: 23 May 2024
Orbit: 703 x 904 km, 98.2° (Epoch: 12 June)

Event Time Altitude Azimuth Distance (km) Brightness Sun altitude
Rises 01:34:19 0° 11° (N) 3,537 7.6 -8.9°
Reaches altitude 10° 01:36:46 10° 8° (N) 2,597 6.7 -8.7°
Maximum altitude 01:42:28 57° 291° (WNW) 1,052 3.6 -8.0°
Drops below altitude 10° 01:48:03 10° 214° (SW) 2,546 5.0 -7.4°
Enters shadow 01:48:26 - 213° (SSW) 2,692 5.2 -7.4°
